Home > Weather > Amsterdam Island > Past weeks

Flag for French Southern Territories Past Weather in Amsterdam Island, French Southern Territories — Yesterday and Last 2 Weeks

Now
54 °F

Cool.


Feels Like: 48 °F
Forecast: 56 / 58 °F
Wind: 23 mph from West

Location: Martin De Vivies Ile Amsterdam

Current Time: Jun 28, 2016 at 4:33:43 PM

Latest Report: Jun 28, 2016 at 4:00 PM


Visibility: N/A

Pressure: 30.29 "Hg

Humidity: 77%

Dew Point: 47 °F

Location of Amsterdam IslandLocation

Past Weather in Amsterdam Island — Graph

°F

Amsterdam Island Temperature Yesterday

Maximum temperature yesterday: 56 °F (at 2:00 PM)
Minimum temperature yesterday: 48 °F (at 6:00 AM)
Average temperature yesterday: 51 °F

High & Low Weather Summary for the Past Weeks

 TemperatureHumidityPressure
High60 °F (Jun 13, 3:00 PM)96% (Jun 14, 2:00 AM)30.66 "Hg (Jun 14, 2:00 AM)
Low46 °F (Jun 23, 8:00 PM)56% (Jun 27, 11:00 AM)29.29 "Hg (Jun 15, 2:00 AM)
Average54 °F78%30.12 "Hg
* Reported Jun 13 3:00 PM — Jun 28 3:00 PM, Amsterdam Island, Weather by CustomWeather, © 2016

Note: Actual official high and low records may vary slightly from our data, if they occured in-between our weather recording intervals... More about our weather records

Advertising

Amsterdam Island Weather History for the Previous 24 Hours

Scroll right to see more
 ConditionsComfort  
Time TempWeatherWind HumidityBarometerVisibility
3:00 PM
Tue, Jun 28
55 °FCool.24 mph72%30.28 "HgN/A
2:00 PM56 °FCool.21 mph69%30.29 "HgN/A
1:00 PM57 °FCool.20 mph63%30.29 "HgN/A
12:00 PM56 °FCool.22 mph66%30.30 "HgN/A
11:00 AM56 °FCool.18 mph67%30.32 "HgN/A
10:00 AM55 °FCool.21 mph60%30.32 "HgN/A
9:00 AM55 °FCool.18 mph69%30.32 "HgN/A
8:00 AM54 °FCool.15 mph65%30.32 "HgN/A
7:00 AM53 °FCool.18 mph59%30.33 "HgN/A
6:00 AM53 °FCool.20 mph70%30.31 "HgN/A
5:00 AM52 °FCool.17 mph68%30.31 "HgN/A
4:00 AM53 °FCool.15 mph70%30.30 "HgN/A
3:00 AM52 °FCool.14 mph58%30.31 "HgN/A
2:00 AM52 °FCool.15 mph58%30.32 "HgN/A
1:00 AM51 °FCool.5 mph62%30.34 "HgN/A
12:00 AM51 °FCool.8 mph65%30.33 "HgN/A
11:00 PM
Mon, Jun 27
51 °FCool.8 mph61%30.33 "HgN/A
10:00 PM51 °FCool.5 mph66%30.34 "HgN/A
9:00 PM51 °FCool.8 mph65%30.34 "HgN/A
8:00 PM50 °FCool.9 mph63%30.34 "HgN/A
7:00 PM48 °FCool.7 mph73%30.34 "HgN/A
6:00 PM48 °FCool.10 mph80%30.34 "HgN/A
5:00 PM48 °FCool.7 mph74%30.32 "HgN/A
4:00 PM52 °FCool.7 mph67%30.31 "HgN/A
Weather by CustomWeather, © 2016

See weather overviewHow to use our weather pages